| time (UTC) | temp C | wind direction | speed KPH | gust KPH | rain 1hr cm | rain 24hr cm | rain mn cm | humidity % | barometer mb |
| 20260507224553 | 12 | 126 | 6.4 | 16.1 | 0.00 | 0.00 | 0.00 | 73 | 1015.6 |
| 20260507224037 | 12 | 122 | 4.8 | 16.1 | 0.00 | 0.00 | 0.00 | 73 | 1015.7 |
| 20260507223540 | 12 | 130 | 6.4 | 12.9 | 0.00 | 0.00 | 0.00 | 73 | 1015.7 |
| 20260507223053 | 12 | 96 | 4.8 | 16.1 | 0.00 | 0.00 | 0.00 | 73 | 1015.6 |
| 20260507222541 | 12 | 96 | 8.0 | 16.1 | 0.00 | 0.00 | 0.00 | 73 | 1015.6 |
| 20260507222037 | 12 | 76 | 4.8 | 14.5 | 0.00 | 0.00 | 0.00 | 73 | 1015.7 |
| 20260507221548 | 12 | 98 | 8.0 | 14.5 | 0.00 | 0.00 | 0.00 | 73 | 1015.7 |
| 20260507221038 | 12 | 79 | 4.8 | 17.7 | 0.00 | 0.00 | 0.00 | 72 | 1015.8 |
| 20260507220538 | 12 | 111 | 4.8 | 17.7 | 0.00 | 0.00 | 0.00 | 72 | 1015.8 |
| 20260507220048 | 12 | 146 | 8.0 | 19.3 | 0.00 | 0.00 | 0.00 | 72 | 1015.9 |
| 20260507215540 | 12 | 154 | 4.8 | 19.3 | 0.00 | 0.00 | 0.00 | 71 | 1015.9 |
| 20260507215038 | 12 | 106 | 4.8 | 14.5 | 0.00 | 0.00 | 0.00 | 71 | 1015.9 |
| 20260507214542 | 12 | 144 | 4.8 | 14.5 | 0.00 | 0.00 | 0.00 | 71 | 1015.9 |
| 20260507214039 | 12 | 118 | 8.0 | 16.1 | 0.00 | 0.00 | 0.00 | 71 | 1015.8 |
| 20260507213538 | 12 | 110 | 6.4 | 16.1 | 0.00 | 0.00 | 0.00 | 71 | 1015.8 |
| 20260507213045 | 12 | 98 | 6.4 | 12.9 | 0.00 | 0.00 | 0.00 | 71 | 1015.9 |
| 20260507212539 | 12 | 139 | 6.4 | 19.3 | 0.00 | 0.00 | 0.00 | 71 | 1015.9 |
| 20260507212037 | 12 | 127 | 4.8 | 19.3 | 0.00 | 0.00 | 0.00 | 71 | 1015.9 |
| 20260507211548 | 12 | 115 | 8.0 | 22.5 | 0.00 | 0.00 | 0.00 | 70 | 1015.8 |
| 20260507211037 | 12 | 113 | 11.3 | 22.5 | 0.00 | 0.00 | 0.00 | 71 | 1015.8 |
| 20260507210537 | 12 | 69 | 4.8 | 14.5 | 0.00 | 0.00 | 0.00 | 74 | 1015.8 |
| 20260507210048 | 12 | 137 | 3.2 | 9.7 | 0.00 | 0.00 | 0.00 | 76 | 1015.8 |
| 20260507205537 | 12 | 124 | 0.0 | 4.8 | 0.00 | 0.00 | 0.00 | 77 | 1015.8 |
| 20260507205040 | 12 | 124 | 0.0 | 4.8 | 0.00 | 0.00 | 0.00 | 77 | 1015.8 |
| 20260507204555 | 12 | 148 | 1.6 | 4.8 | 0.00 | 0.00 | 0.00 | 77 | 1015.8 |
| 20260507204037 | 12 | 0 | 0.0 | 6.4 | 0.00 | 0.00 | 0.00 | 77 | 1015.8 |
| 20260507203537 | 12 | 0 | 0.0 | 9.7 | 0.00 | 0.00 | 0.00 | 77 | 1015.7 |
| 20260507203045 | 12 | 135 | 1.6 | 9.7 | 0.00 | 0.00 | 0.00 | 77 | 1015.6 |
| 20260507202538 | 12 | 180 | 1.6 | 12.9 | 0.00 | 0.00 | 0.00 | 77 | 1015.5 |
| 20260507202037 | 12 | 157 | 1.6 | 14.5 | 0.00 | 0.00 | 0.00 | 77 | 1015.6 |
| 20260507201548 | 12 | 144 | 3.2 | 14.5 | 0.00 | 0.00 | 0.00 | 76 | 1015.5 |
| 20260507201039 | 12 | 113 | 1.6 | 14.5 | 0.00 | 0.00 | 0.00 | 76 | 1015.5 |
| 20260507200542 | 12 | 101 | 3.2 | 12.9 | 0.00 | 0.00 | 0.00 | 75 | 1015.4 |
| 20260507200053 | 12 | 128 | 3.2 | 12.9 | 0.00 | 0.00 | 0.00 | 74 | 1015.4 |
| 20260507195537 | 12 | 162 | 6.4 | 12.9 | 0.00 | 0.00 | 0.00 | 74 | 1015.4 |
| 20260507195039 | 12 | 139 | 3.2 | 8.0 | 0.00 | 0.00 | 0.00 | 72 | 1015.3 |
| 20260507194553 | 12 | 0 | 0.0 | 14.5 | 0.00 | 0.00 | 0.00 | 72 | 1015.1 |
| 20260507194042 | 12 | 25 | 4.8 | 14.5 | 0.00 | 0.00 | 0.00 | 72 | 1015.1 |
| 20260507193537 | 12 | 78 | 3.2 | 16.1 | 0.00 | 0.00 | 0.00 | 73 | 1014.9 |
| 20260507193047 | 12 | 98 | 6.4 | 16.1 | 0.00 | 0.00 | 0.00 | 73 | 1014.8 |
| 20260507192536 | 12 | 94 | 6.4 | 16.1 | 0.00 | 0.00 | 0.00 | 73 | 1014.9 |
| 20260507192037 | 12 | 105 | 4.8 | 14.5 | 0.00 | 0.00 | 0.00 | 73 | 1015.0 |
| 20260507191608 | 13 | 115 | 1.6 | 14.5 | 0.00 | 0.00 | 0.00 | 73 | 1015.1 |
| 20260507191036 | 13 | 122 | 6.4 | 14.5 | 0.00 | 0.00 | 0.00 | 73 | 1015.2 |
| 20260507190538 | 13 | 89 | 4.8 | 16.1 | 0.00 | 0.00 | 0.00 | 73 | 1015.1 |
| 20260507190047 | 13 | 125 | 3.2 | 16.1 | 0.00 | 0.00 | 0.00 | 72 | 1015.1 |
| 20260507185538 | 13 | 142 | 4.8 | 11.3 | 0.00 | 0.00 | 0.00 | 71 | 1014.9 |
| 20260507185038 | 13 | 144 | 3.2 | 11.3 | 0.00 | 0.00 | 0.00 | 69 | 1015.0 |
| 20260507184557 | 13 | 150 | 1.6 | 11.3 | 0.00 | 0.00 | 0.00 | 68 | 1015.0 |
| 20260507184037 | 13 | 153 | 3.2 | 11.3 | 0.00 | 0.00 | 0.00 | 66 | 1015.1 |
| 20260507183537 | 13 | 147 | 1.6 | 11.3 | 0.00 | 0.00 | 0.00 | 65 | 1015.0 |
| 20260507183052 | 13 | 139 | 3.2 | 12.9 | 0.00 | 0.00 | 0.00 | 66 | 1015.2 |
| 20260507182538 | 13 | 174 | 4.8 | 12.9 | 0.00 | 0.00 | 0.00 | 66 | 1015.0 |
| 20260507182038 | 13 | 155 | 4.8 | 12.9 | 0.00 | 0.00 | 0.00 | 65 | 1014.9 |
| 20260507181551 | 13 | 0 | 1.6 | 12.9 | 0.00 | 0.00 | 0.00 | 66 | 1014.9 |
| 20260507181037 | 13 | 159 | 4.8 | 12.9 | 0.00 | 0.00 | 0.00 | 63 | 1014.9 |
| 20260507180537 | 13 | 155 | 1.6 | 12.9 | 0.00 | 0.00 | 0.00 | 64 | 1014.9 |
| 20260507180053 | 14 | 139 | 3.2 | 9.7 | 0.00 | 0.00 | 0.00 | 61 | 1014.9 |
| 20260507175541 | 14 | 121 | 0.0 | 9.7 | 0.00 | 0.00 | 0.00 | 63 | 1014.8 |
| 20260507175037 | 14 | 144 | 1.6 | 16.1 | 0.00 | 0.00 | 0.00 | 65 | 1014.9 |
| 20260507174547 | 14 | 148 | 1.6 | 16.1 | 0.00 | 0.00 | 0.00 | 63 | 1014.9 |
| 20260507174039 | 14 | 150 | 4.8 | 12.9 | 0.00 | 0.00 | 0.00 | 62 | 1014.8 |
| 20260507173537 | 14 | 149 | 3.2 | 12.9 | 0.00 | 0.00 | 0.00 | 64 | 1014.9 |
| 20260507173050 | 14 | 154 | 4.8 | 12.9 | 0.00 | 0.00 | 0.00 | 63 | 1014.9 |
| 20260507172537 | 14 | 137 | 3.2 | 14.5 | 0.00 | 0.00 | 0.00 | 62 | 1014.9 |
| 20260507172037 | 15 | 139 | 4.8 | 14.5 | 0.00 | 0.00 | 0.00 | 53 | 1014.9 |
| 20260507171552 | 15 | 152 | 1.6 | 14.5 | 0.00 | 0.00 | 0.00 | 54 | 1014.9 |
| 20260507171038 | 15 | 0 | 3.2 | 14.5 | 0.00 | 0.00 | 0.00 | 55 | 1014.9 |
| 20260507170538 | 15 | 136 | 3.2 | 14.5 | 0.00 | 0.00 | 0.00 | 53 | 1014.9 |
| 20260507170052 | 15 | 145 | 1.6 | 12.9 | 0.00 | 0.00 | 0.00 | 57 | 1014.9 |
| 20260507165537 | 15 | 98 | 1.6 | 12.9 | 0.00 | 0.00 | 0.00 | 62 | 1015.0 |
| 20260507165038 | 15 | 136 | 0.0 | 14.5 | 0.00 | 0.00 | 0.00 | 58 | 1015.0 |
| 20260507164604 | 15 | 0 | 3.2 | 19.3 | 0.00 | 0.00 | 0.00 | 59 | 1014.9 |
| 20260507164038 | 15 | 157 | 4.8 | 19.3 | 0.00 | 0.00 | 0.00 | 59 | 1015.0 |
| 20260507163538 | 16 | 147 | 3.2 | 14.5 | 0.00 | 0.00 | 0.00 | 58 | 1014.9 |
| 20260507163045 | 16 | 0 | 3.2 | 11.3 | 0.00 | 0.00 | 0.00 | 59 | 1014.9 |
| 20260507162536 | 16 | 171 | 4.8 | 16.1 | 0.00 | 0.00 | 0.00 | 59 | 1014.9 |
| 20260507162039 | 16 | 200 | 4.8 | 16.1 | 0.00 | 0.00 | 0.00 | 60 | 1015.0 |
| 20260507161555 | 16 | 121 | 6.4 | 14.5 | 0.00 | 0.00 | 0.00 | 60 | 1015.0 |
| 20260507161038 | 16 | 175 | 6.4 | 14.5 | 0.00 | 0.00 | 0.00 | 57 | 1015.1 |
| 20260507160535 | 15 | 146 | 4.8 | 14.5 | 0.00 | 0.00 | 0.00 | 59 | 1015.2 |
| 20260507160052 | 15 | 121 | 6.4 | 14.5 | 0.00 | 0.00 | 0.00 | 58 | 1015.2 |
| 20260507155538 | 15 | 134 | 6.4 | 14.5 | 0.00 | 0.00 | 0.00 | 60 | 1015.2 |
| 20260507155037 | 15 | 163 | 6.4 | 17.7 | 0.00 | 0.00 | 0.00 | 64 | 1015.2 |
| 20260507154549 | 15 | 138 | 8.0 | 17.7 | 0.00 | 0.00 | 0.00 | 62 | 1015.2 |
| 20260507154039 | 15 | 151 | 9.7 | 20.9 | 0.00 | 0.00 | 0.00 | 62 | 1015.3 |
| 20260507153537 | 15 | 196 | 8.0 | 20.9 | 0.00 | 0.00 | 0.00 | 65 | 1015.2 |
| 20260507153052 | 15 | 135 | 8.0 | 19.3 | 0.00 | 0.00 | 0.00 | 62 | 1015.3 |
| 20260507152537 | 15 | 144 | 8.0 | 17.7 | 0.00 | 0.00 | 0.00 | 65 | 1015.2 |
| 20260507152039 | 15 | 177 | 8.0 | 17.7 | 0.00 | 0.00 | 0.00 | 66 | 1015.3 |
| 20260507151547 | 15 | 163 | 8.0 | 19.3 | 0.00 | 0.00 | 0.00 | 68 | 1015.3 |
| 20260507151037 | 15 | 98 | 6.4 | 19.3 | 0.00 | 0.00 | 0.00 | 68 | 1015.4 |
| 20260507150537 | 15 | 128 | 9.7 | 20.9 | 0.00 | 0.00 | 0.00 | 66 | 1015.4 |
| 20260507150050 | 15 | 171 | 8.0 | 20.9 | 0.00 | 0.00 | 0.00 | 67 | 1015.3 |
| 20260507145631 | 15 | 140 | 9.7 | 22.5 | 0.00 | 0.00 | 0.00 | 68 | 1015.3 |
| 20260507145039 | 15 | 123 | 6.4 | 22.5 | 0.00 | 0.00 | 0.00 | 68 | 1015.4 |
| 20260507144543 | 15 | 132 | 8.0 | 19.3 | 0.00 | 0.00 | 0.00 | 70 | 1015.4 |
| 20260507144033 | 15 | 172 | 11.3 | 17.7 | 0.00 | 0.00 | 0.00 | 69 | 1015.5 |
| 20260507143533 | 15 | 138 | 8.0 | 16.1 | 0.00 | 0.00 | 0.00 | 67 | 1015.6 |
| 20260507143100 | 15 | 147 | 8.0 | 16.1 | 0.00 | 0.00 | 0.00 | 68 | 1015.6 |
| 20260507142536 | 15 | 168 | 6.4 | 19.3 | 0.00 | 0.00 | 0.00 | 68 | 1015.5 |
| 20260507142033 | 15 | 152 | 8.0 | 19.3 | 0.00 | 0.00 | 0.00 | 65 | 1015.6 |
| 20260507141604 | 15 | 209 | 9.7 | 19.3 | 0.00 | 0.00 | 0.00 | 68 | 1015.6 |
| 20260507141035 | 15 | 130 | 9.7 | 19.3 | 0.00 | 0.00 | 0.00 | 69 | 1015.8 |
| 20260507140537 | 15 | 140 | 8.0 | 20.9 | 0.00 | 0.00 | 0.00 | 69 | 1015.8 |
| 20260507140050 | 15 | 205 | 9.7 | 25.7 | 0.00 | 0.00 | 0.00 | 69 | 1015.7 |
| 20260507135533 | 15 | 140 | 9.7 | 25.7 | 0.00 | 0.00 | 0.00 | 68 | 1015.7 |
| 20260507135034 | 15 | 142 | 9.7 | 22.5 | 0.00 | 0.00 | 0.00 | 65 | 1015.8 |
| 20260507134546 | 15 | 157 | 9.7 | 22.5 | 0.00 | 0.00 | 0.00 | 65 | 1015.8 |
| 20260507134034 | 15 | 136 | 9.7 | 24.1 | 0.00 | 0.00 | 0.00 | 65 | 1015.8 |
| 20260507133534 | 15 | 175 | 9.7 | 24.1 | 0.00 | 0.00 | 0.00 | 63 | 1015.7 |
| 20260507133046 | 16 | 126 | 8.0 | 22.5 | 0.00 | 0.00 | 0.00 | 60 | 1015.7 |
| 20260507132533 | 16 | 128 | 9.7 | 20.9 | 0.00 | 0.00 | 0.00 | 58 | 1015.7 |
| 20260507132032 | 16 | 145 | 8.0 | 20.9 | 0.00 | 0.00 | 0.00 | 62 | 1015.7 |
| 20260507131554 | 15 | 157 | 6.4 | 19.3 | 0.00 | 0.00 | 0.00 | 61 | 1015.6 |
| 20260507131038 | 15 | 101 | 11.3 | 24.1 | 0.00 | 0.00 | 0.00 | 61 | 1015.7 |
| 20260507130536 | 15 | 135 | 8.0 | 24.1 | 0.00 | 0.00 | 0.00 | 60 | 1015.8 |
| 20260507130046 | 15 | 146 | 8.0 | 20.9 | 0.00 | 0.00 | 0.00 | 61 | 1015.8 |
| 20260507125533 | 15 | 133 | 9.7 | 20.9 | 0.00 | 0.00 | 0.00 | 62 | 1015.8 |
| 20260507125038 | 15 | 176 | 9.7 | 20.9 | 0.00 | 0.00 | 0.00 | 60 | 1015.8 |
| 20260507124543 | 15 | 158 | 9.7 | 20.9 | 0.00 | 0.00 | 0.00 | 62 | 1015.8 |
| 20260507124035 | 15 | 115 | 8.0 | 20.9 | 0.00 | 0.00 | 0.00 | 61 | 1015.8 |
| 20260507123534 | 15 | 146 | 11.3 | 20.9 | 0.00 | 0.00 | 0.00 | 62 | 1015.7 |
| 20260507123103 | 16 | 230 | 9.7 | 20.9 | 0.00 | 0.00 | 0.00 | 59 | 1015.9 |
| 20260507122535 | 16 | 168 | 6.4 | 25.7 | 0.00 | 0.00 | 0.00 | 59 | 1015.9 |
| 20260507122033 | 16 | 146 | 11.3 | 25.7 | 0.00 | 0.00 | 0.00 | 59 | 1016.0 |
| 20260507121546 | 16 | 130 | 9.7 | 22.5 | 0.00 | 0.00 | 0.00 | 59 | 1015.9 |
| 20260507121033 | 16 | 169 | 6.4 | 22.5 | 0.00 | 0.00 | 0.00 | 57 | 1016.0 |
| 20260507120532 | 16 | 145 | 9.7 | 22.5 | 0.00 | 0.00 | 0.00 | 59 | 1016.0 |
| 20260507120047 | 16 | 148 | 8.0 | 20.9 | 0.00 | 0.00 | 0.00 | 59 | 1016.1 |
| 20260507115535 | 16 | 167 | 6.4 | 20.9 | 0.00 | 0.00 | 0.00 | 59 | 1016.0 |
| 20260507115037 | 16 | 172 | 8.0 | 22.5 | 0.00 | 0.00 | 0.00 | 62 | 1016.1 |
| 20260507114553 | 16 | 154 | 9.7 | 22.5 | 0.00 | 0.00 | 0.00 | 60 | 1016.1 |
| 20260507114037 | 16 | 161 | 8.0 | 17.7 | 0.00 | 0.00 | 0.00 | 61 | 1016.1 |
| 20260507113537 | 16 | 205 | 9.7 | 19.3 | 0.00 | 0.00 | 0.00 | 61 | 1016.1 |
| 20260507113046 | 16 | 159 | 6.4 | 20.9 | 0.00 | 0.00 | 0.00 | 62 | 1016.0 |
| 20260507112537 | 16 | 112 | 8.0 | 20.9 | 0.00 | 0.00 | 0.00 | 62 | 1016.1 |
| 20260507112037 | 16 | 130 | 9.7 | 20.9 | 0.00 | 0.00 | 0.00 | 64 | 1016.1 |
| 20260507111545 | 16 | 189 | 9.7 | 17.7 | 0.00 | 0.00 | 0.00 | 61 | 1016.1 |
| 20260507111038 | 16 | 163 | 4.8 | 16.1 | 0.00 | 0.00 | 0.00 | 64 | 1016.1 |
| 20260507110537 | 15 | 190 | 8.0 | 20.9 | 0.00 | 0.00 | 0.00 | 66 | 1016.1 |
| 20260507110050 | 15 | 91 | 8.0 | 22.5 | 0.00 | 0.00 | 0.00 | 66 | 1016.1 |
| 20260507105534 | 15 | 149 | 9.7 | 22.5 | 0.00 | 0.00 | 0.00 | 66 | 1016.2 |
| 20260507105035 | 15 | 132 | 9.7 | 20.9 | 0.00 | 0.00 | 0.00 | 65 | 1016.2 |
| 20260507104549 | 15 | 160 | 6.4 | 19.3 | 0.00 | 0.00 | 0.00 | 66 | 1016.3 |
| 20260507104037 | 15 | 144 | 8.0 | 24.1 | 0.00 | 0.00 | 0.00 | 67 | 1016.2 |
| 20260507103534 | 15 | 107 | 9.7 | 24.1 | 0.00 | 0.00 | 0.00 | 68 | 1016.2 |
| 20260507103048 | 15 | 148 | 9.7 | 20.9 | 0.00 | 0.00 | 0.00 | 67 | 1016.2 |
| 20260507102538 | 15 | 126 | 6.4 | 17.7 | 0.00 | 0.00 | 0.00 | 66 | 1016.1 |
| 20260507102035 | 15 | 166 | 8.0 | 17.7 | 0.00 | 0.00 | 0.00 | 66 | 1016.1 |
| 20260507101546 | 15 | 120 | 8.0 | 20.9 | 0.00 | 0.00 | 0.00 | 65 | 1016.1 |
| 20260507101034 | 15 | 207 | 9.7 | 20.9 | 0.00 | 0.00 | 0.00 | 66 | 1016.2 |
| 20260507100537 | 15 | 170 | 6.4 | 19.3 | 0.00 | 0.00 | 0.00 | 66 | 1016.2 |
| 20260507100052 | 15 | 123 | 9.7 | 19.3 | 0.00 | 0.00 | 0.00 | 64 | 1016.2 |
| 20260507095537 | 15 | 192 | 8.0 | 20.9 | 0.00 | 0.00 | 0.00 | 65 | 1016.3 |
| 20260507095041 | 15 | 192 | 8.0 | 20.9 | 0.00 | 0.00 | 0.00 | 64 | 1016.2 |
| 20260507094549 | 15 | 173 | 6.4 | 16.1 | 0.00 | 0.00 | 0.00 | 64 | 1016.2 |
| 20260507094037 | 15 | 153 | 4.8 | 14.5 | 0.00 | 0.00 | 0.00 | 65 | 1016.1 |
| 20260507093537 | 15 | 210 | 6.4 | 16.1 | 0.00 | 0.00 | 0.00 | 65 | 1016.1 |
| 20260507093048 | 15 | 128 | 4.8 | 16.1 | 0.00 | 0.00 | 0.00 | 67 | 1016.1 |
| 20260507092537 | 14 | 186 | 8.0 | 16.1 | 0.00 | 0.00 | 0.00 | 67 | 1016.0 |
| 20260507092036 | 14 | 164 | 6.4 | 16.1 | 0.00 | 0.00 | 0.00 | 67 | 1016.2 |
| 20260507091547 | 14 | 184 | 4.8 | 16.1 | 0.00 | 0.00 | 0.00 | 68 | 1016.1 |
| 20260507091037 | 13 | 117 | 6.4 | 16.1 | 0.00 | 0.00 | 0.00 | 68 | 1016.2 |
| 20260507090534 | 14 | 127 | 4.8 | 14.5 | 0.00 | 0.00 | 0.00 | 69 | 1016.2 |
| 20260507090057 | 13 | 167 | 6.4 | 20.9 | 0.00 | 0.00 | 0.00 | 69 | 1016.2 |
| 20260507085534 | 13 | 183 | 6.4 | 20.9 | 0.00 | 0.00 | 0.00 | 69 | 1016.3 |
| 20260507085045 | 13 | 177 | 4.8 | 16.1 | 0.00 | 0.00 | 0.00 | 71 | 1016.2 |
| 20260507084553 | 13 | 150 | 3.2 | 17.7 | 0.00 | 0.00 | 0.00 | 73 | 1016.1 |
| 20260507084037 | 13 | 142 | 4.8 | 17.7 | 0.00 | 0.00 | 0.00 | 75 | 1016.1 |
| 20260507083537 | 13 | 164 | 6.4 | 17.7 | 0.00 | 0.00 | 0.00 | 75 | 1016.2 |
| 20260507083052 | 13 | 115 | 6.4 | 17.7 | 0.00 | 0.00 | 0.00 | 74 | 1016.1 |
| 20260507082538 | 13 | 134 | 4.8 | 14.5 | 0.00 | 0.00 | 0.00 | 74 | 1016.1 |
| 20260507082037 | 13 | 140 | 6.4 | 14.5 | 0.00 | 0.00 | 0.00 | 74 | 1016.0 |
| 20260507081553 | 13 | 103 | 8.0 | 14.5 | 0.00 | 0.00 | 0.00 | 74 | 1016.0 |
| 20260507081037 | 13 | 151 | 3.2 | 12.9 | 0.00 | 0.00 | 0.00 | 75 | 1015.9 |
| 20260507080537 | 12 | 135 | 4.8 | 14.5 | 0.00 | 0.00 | 0.00 | 74 | 1015.9 |
| 20260507080109 | 12 | 153 | 6.4 | 14.5 | 0.00 | 0.00 | 0.00 | 74 | 1016.0 |
| 20260507075537 | 13 | 108 | 4.8 | 11.3 | 0.00 | 0.00 | 0.00 | 74 | 1016.0 |
| 20260507075035 | 12 | 121 | 4.8 | 11.3 | 0.00 | 0.00 | 0.00 | 75 | 1016.0 |
| 20260507074546 | 12 | 134 | 4.8 | 11.3 | 0.00 | 0.00 | 0.00 | 75 | 1016.0 |
| 20260507074035 | 12 | 162 | 3.2 | 11.3 | 0.00 | 0.00 | 0.00 | 75 | 1016.0 |
| 20260507073535 | 11 | 107 | 3.2 | 11.3 | 0.00 | 0.00 | 0.00 | 75 | 1016.0 |
| 20260507073047 | 11 | 149 | 3.2 | 6.4 | 0.00 | 0.00 | 0.00 | 74 | 1016.1 |
| 20260507072535 | 11 | 98 | 0.0 | 6.4 | 0.00 | 0.00 | 0.00 | 75 | 1016.0 |
| 20260507072035 | 11 | 98 | 1.6 | 6.4 | 0.00 | 0.00 | 0.00 | 74 | 1016.0 |
| 20260507071546 | 10 | 129 | 1.6 | 4.8 | 0.00 | 0.00 | 0.00 | 74 | 1015.9 |
| 20260507071035 | 10 | 129 | 1.6 | 4.8 | 0.00 | 0.00 | 0.00 | 75 | 1016.0 |
| 20260507070535 | 10 | 0 | 1.6 | 4.8 | 0.00 | 0.00 | 0.00 | 75 | 1015.9 |
| 20260507070049 | 10 | 0 | 1.6 | 4.8 | 0.00 | 0.00 | 0.00 | 75 | 1015.9 |
| 20260507065537 | 10 | 129 | 1.6 | 4.8 | 0.00 | 0.00 | 0.00 | 75 | 1015.9 |
| 20260507065036 | 10 | 73 | 1.6 | 4.8 | 0.00 | 0.00 | 0.00 | 76 | 1015.9 |
| 20260507064621 | 10 | 0 | 0.0 | 4.8 | 0.00 | 0.00 | 0.00 | 76 | 1015.9 |
| 20260507064037 | 9 | 0 | 0.0 | 4.8 | 0.00 | 0.00 | 0.00 | 77 | 1015.9 |
| 20260507063536 | 9 | 73 | 0.0 | 4.8 | 0.00 | 0.00 | 0.00 | 78 | 1015.9 |
| 20260507063051 | 8 | 0 | 1.6 | 4.8 | 0.00 | 0.00 | 0.00 | 78 | 1015.8 |
| 20260507062537 | 8 | 24 | 0.0 | 3.2 | 0.00 | 0.00 | 0.00 | 78 | 1015.8 |
| 20260507062037 | 8 | 24 | 0.0 | 4.8 | 0.00 | 0.00 | 0.00 | 78 | 1015.9 |
| 20260507061548 | 8 | 24 | 0.0 | 4.8 | 0.00 | 0.00 | 0.00 | 78 | 1015.8 |
| 20260507061037 | 8 | 48 | 1.6 | 4.8 | 0.00 | 0.00 | 0.00 | 79 | 1015.7 |
| 20260507060537 | 8 | 50 | 0.0 | 4.8 | 0.00 | 0.00 | 0.00 | 79 | 1015.8 |
| 20260507060109 | 8 | 57 | 0.0 | 6.4 | 0.00 | 0.00 | 0.00 | 79 | 1015.7 |
| 20260507055537 | 8 | 0 | 0.0 | 8.0 | 0.00 | 0.00 | 0.00 | 79 | 1015.6 |
| 20260507055036 | 8 | 71 | 3.2 | 8.0 | 0.00 | 0.00 | 0.00 | 79 | 1015.6 |
| 20260507054552 | 7 | 24 | 1.6 | 8.0 | 0.00 | 0.00 | 0.00 | 79 | 1015.5 |
| 20260507054038 | 7 | 71 | 3.2 | 8.0 | 0.00 | 0.00 | 0.00 | 79 | 1015.5 |
| 20260507053537 | 7 | 48 | 1.6 | 8.0 | 0.00 | 0.00 | 0.00 | 79 | 1015.5 |
| 20260507053048 | 7 | 47 | 3.2 | 8.0 | 0.00 | 0.00 | 0.00 | 79 | 1015.5 |
| 20260507052537 | 7 | 38 | 3.2 | 8.0 | 0.00 | 0.00 | 0.00 | 78 | 1015.5 |
| 20260507052037 | 7 | 43 | 3.2 | 6.4 | 0.00 | 0.00 | 0.00 | 78 | 1015.5 |
| 20260507051603 | 7 | 34 | 1.6 | 8.0 | 0.00 | 0.00 | 0.00 | 78 | 1015.5 |
| 20260507051036 | 7 | 32 | 1.6 | 8.0 | 0.00 | 0.00 | 0.00 | 78 | 1015.6 |
| 20260507050538 | 7 | 31 | 3.2 | 8.0 | 0.00 | 0.00 | 0.00 | 78 | 1015.4 |
| 20260507050050 | 7 | 33 | 1.6 | 8.0 | 0.00 | 0.00 | 0.00 | 78 | 1015.4 |
| 20260507045536 | 7 | 32 | 3.2 | 8.0 | 0.00 | 0.08 | 0.00 | 78 | 1015.3 |
| 20260507045036 | 7 | 41 | 1.6 | 6.4 | 0.00 | 0.08 | 0.00 | 78 | 1015.4 |
| 20260507044550 | 7 | 34 | 1.6 | 6.4 | 0.00 | 0.08 | 0.00 | 78 | 1015.4 |
| 20260507044040 | 7 | 51 | 1.6 | 6.4 | 0.00 | 0.08 | 0.00 | 78 | 1015.4 |
| 20260507043537 | 7 | 335 | 1.6 | 6.4 | 0.00 | 0.08 | 0.00 | 78 | 1015.4 |
| 20260507043049 | 7 | 0 | 1.6 | 8.0 | 0.00 | 0.08 | 0.00 | 77 | 1015.4 |
| 20260507042538 | 7 | 0 | 1.6 | 8.0 | 0.00 | 0.08 | 0.00 | 77 | 1015.3 |
| 20260507042037 | 7 | 63 | 1.6 | 9.7 | 0.00 | 0.08 | 0.00 | 77 | 1015.3 |
| 20260507041553 | 7 | 51 | 1.6 | 9.7 | 0.00 | 0.08 | 0.00 | 77 | 1015.2 |
| 20260507041038 | 7 | 38 | 1.6 | 8.0 | 0.00 | 0.08 | 0.00 | 77 | 1015.2 |
| 20260507040535 | 7 | 71 | 3.2 | 12.9 | 0.00 | 0.08 | 0.00 | 77 | 1015.2 |
| 20260507040047 | 7 | 63 | 3.2 | 12.9 | 0.00 | 0.08 | 0.00 | 77 | 1015.2 |
| 20260507035537 | 7 | 43 | 4.8 | 12.9 | 0.00 | 0.08 | 0.00 | 77 | 1015.2 |
| 20260507035034 | 7 | 55 | 3.2 | 9.7 | 0.00 | 0.08 | 0.00 | 76 | 1015.2 |
| 20260507034547 | 7 | 32 | 3.2 | 8.0 | 0.00 | 0.08 | 0.00 | 76 | 1015.2 |
| 20260507034037 | 7 | 51 | 3.2 | 9.7 | 0.00 | 0.08 | 0.00 | 76 | 1015.2 |
| 20260507033537 | 7 | 37 | 3.2 | 9.7 | 0.00 | 0.08 | 0.00 | 76 | 1015.3 |
| 20260507033048 | 7 | 35 | 3.2 | 9.7 | 0.00 | 0.08 | 0.00 | 76 | 1015.1 |
| 20260507032537 | 7 | 53 | 4.8 | 11.3 | 0.00 | 0.08 | 0.00 | 76 | 1015.2 |
| 20260507032039 | 7 | 57 | 3.2 | 12.9 | 0.00 | 0.08 | 0.00 | 75 | 1015.2 |
| 20260507031547 | 7 | 31 | 4.8 | 12.9 | 0.00 | 0.08 | 0.00 | 75 | 1015.2 |
| 20260507031037 | 7 | 5 | 3.2 | 8.0 | 0.00 | 0.08 | 0.00 | 75 | 1015.1 |
| 20260507030537 | 7 | 32 | 3.2 | 9.7 | 0.00 | 0.08 | 0.00 | 75 | 1015.1 |
| 20260507030048 | 7 | 17 | 3.2 | 11.3 | 0.00 | 0.08 | 0.00 | 75 | 1015.1 |
| 20260507025537 | 7 | 24 | 4.8 | 11.3 | 0.00 | 0.08 | 0.00 | 75 | 1015.0 |
| 20260507025039 | 7 | 26 | 3.2 | 11.3 | 0.00 | 0.08 | 0.00 | 75 | 1015.0 |
| 20260507024546 | 7 | 42 | 3.2 | 9.7 | 0.00 | 0.08 | 0.00 | 75 | 1015.0 |
| 20260507024033 | 7 | 36 | 4.8 | 12.9 | 0.00 | 0.08 | 0.00 | 74 | 1015.0 |
| 20260507023536 | 7 | 40 | 4.8 | 12.9 | 0.00 | 0.08 | 0.00 | 74 | 1015.0 |
| 20260507023045 | 7 | 44 | 4.8 | 12.9 | 0.00 | 0.08 | 0.00 | 74 | 1015.0 |
| 20260507022537 | 7 | 18 | 4.8 | 12.9 | 0.00 | 0.08 | 0.00 | 74 | 1014.9 |
| 20260507022037 | 7 | 37 | 4.8 | 12.9 | 0.00 | 0.08 | 0.00 | 74 | 1014.9 |
| 20260507021545 | 7 | 15 | 4.8 | 12.9 | 0.00 | 0.08 | 0.00 | 74 | 1015.0 |
| 20260507021037 | 8 | 40 | 4.8 | 12.9 | 0.00 | 0.08 | 0.00 | 73 | 1014.9 |
| 20260507020537 | 8 | 19 | 4.8 | 14.5 | 0.00 | 0.08 | 0.00 | 73 | 1014.9 |
| 20260507015540 | 8 | 55 | 4.8 | 12.9 | 0.00 | 0.08 | 0.00 | 73 | 1015.0 |
| 20260507015037 | 8 | 53 | 6.4 | 14.5 | 0.00 | 0.08 | 0.00 | 73 | 1014.9 |
| 20260507014548 | 8 | 38 | 3.2 | 14.5 | 0.00 | 0.08 | 0.00 | 73 | 1014.9 |
| 20260507014037 | 8 | 36 | 4.8 | 14.5 | 0.00 | 0.08 | 0.00 | 73 | 1014.9 |
| 20260507013539 | 8 | 34 | 3.2 | 14.5 | 0.00 | 0.08 | 0.00 | 73 | 1014.8 |
| 20260507013047 | 8 | 57 | 6.4 | 14.5 | 0.00 | 0.08 | 0.00 | 73 | 1014.8 |
| 20260507012537 | 8 | 25 | 3.2 | 11.3 | 0.00 | 0.08 | 0.00 | 73 | 1014.8 |
| 20260507012037 | 8 | 46 | 3.2 | 11.3 | 0.00 | 0.08 | 0.00 | 73 | 1014.7 |
| 20260507011546 | 8 | 32 | 3.2 | 11.3 | 0.00 | 0.08 | 0.00 | 73 | 1014.9 |
| 20260507011037 | 8 | 31 | 3.2 | 9.7 | 0.00 | 0.08 | 0.00 | 73 | 1014.8 |
| 20260507010537 | 8 | 41 | 3.2 | 9.7 | 0.00 | 0.08 | 0.00 | 73 | 1014.8 |
| 20260507010100 | 8 | 58 | 4.8 | 9.7 | 0.00 | 0.08 | 0.00 | 73 | 1015.0 |
| 20260507005537 | 8 | 37 | 3.2 | 9.7 | 0.00 | 0.08 | 0.00 | 73 | 1014.9 |
| 20260507005037 | 8 | 24 | 3.2 | 9.7 | 0.00 | 0.08 | 0.00 | 73 | 1014.9 |
| 20260507004545 | 8 | 21 | 3.2 | 8.0 | 0.00 | 0.08 | 0.00 | 72 | 1014.8 |
| 20260507004037 | 8 | 30 | 3.2 | 8.0 | 0.00 | 0.08 | 0.00 | 72 | 1015.0 |
| 20260507003537 | 8 | 0 | 3.2 | 8.0 | 0.00 | 0.08 | 0.00 | 72 | 1014.9 |
| 20260507003052 | 9 | 42 | 1.6 | 6.4 | 0.00 | 0.08 | 0.00 | 72 | 1014.9 |
| 20260507002537 | 9 | 42 | 1.6 | 6.4 | 0.00 | 0.08 | 0.00 | 72 | 1014.9 |
| 20260507002037 | 9 | 42 | 1.6 | 6.4 | 0.00 | 0.08 | 0.00 | 72 | 1015.0 |
| 20260507001554 | 9 | 42 | 1.6 | 4.8 | 0.00 | 0.08 | 0.00 | 72 | 1015.0 |
| 20260507001037 | 9 | 42 | 1.6 | 4.8 | 0.00 | 0.08 | 0.00 | 72 | 1015.0 |
| 20260507000538 | 9 | 42 | 1.6 | 4.8 | 0.00 | 0.08 | 0.00 | 72 | 1015.0 |
| 20260507000057 | 9 | 0 | 0.0 | 4.8 | 0.00 | 0.08 | 0.00 | 71 | 1015.0 |
| 20260506235537 | 10 | 42 | 0.0 | 3.2 | 0.00 | 0.08 | 0.00 | 71 | 1014.9 |
| 20260506235037 | 10 | 0 | 0.0 | 4.8 | 0.00 | 0.08 | 0.00 | 71 | 1015.0 |
| 20260506234547 | 10 | 0 | 1.6 | 4.8 | 0.00 | 0.08 | 0.00 | 71 | 1014.9 |
| 20260506234037 | 10 | 42 | 0.0 | 4.8 | 0.00 | 0.08 | 0.00 | 71 | 1014.9 |
| 20260506233537 | 10 | 42 | 1.6 | 4.8 | 0.00 | 0.08 | 0.00 | 71 | 1014.8 |
| 20260506233048 | 10 | 42 | 1.6 | 4.8 | 0.00 | 0.08 | 0.00 | 71 | 1014.8 |
| 20260506232537 | 10 | 42 | 1.6 | 4.8 | 0.00 | 0.08 | 0.00 | 71 | 1014.8 |
| 20260506232037 | 10 | 272 | 1.6 | 4.8 | 0.00 | 0.08 | 0.00 | 71 | 1014.9 |
| 20260506231607 | 10 | 272 | 1.6 | 4.8 | 0.00 | 0.08 | 0.00 | 71 | 1014.9 |
| 20260506231037 | 11 | 0 | 0.0 | 4.8 | 0.00 | 0.08 | 0.00 | 71 | 1014.9 |
| 20260506230537 | 11 | 272 | 0.0 | 4.8 | 0.00 | 0.08 | 0.00 | 71 | 1014.9 |
| 20260506230106 | 11 | 272 | 1.6 | 4.8 | 0.00 | 0.08 | 0.00 | 72 | 1014.8 |
| 20260506225537 | 11 | 272 | 0.0 | 3.2 | 0.00 | 0.08 | 0.08 | 72 | 1014.9 |
| 20260506225037 | 11 | 272 | 1.6 | 3.2 | 0.00 | 0.08 | 0.08 | 72 | 1014.8 |